Location: Kershaw
(34.5481°N, 80.5823°W)
Time: 14:58:33
(UTC+00:00)

Explorer 7 - All Passes

Search period start: 03 October 2022 00:00
Search period end: 13 October 2022 00:00
Orbit: 482 x 667 km, 50.3° (Epoch: 03 October)

Date Brightness Start Highest point End Pass type
(mag) Time Alt. Az. Time Alt. Az. Time Alt. Az.
03 Oct - 14:31:53 10° SSW 14:36:31 48° SE 14:41:10 10° ENE daylight
03 Oct - 16:12:45 10° W 16:17:06 32° NNW 16:21:25 10° NNE daylight
03 Oct - 17:56:31 10° NW 17:58:44 13° NNW 18:00:56 10° NNE daylight
03 Oct - 19:38:53 10° NNW 19:40:53 12° N 19:42:51 10° NE daylight
03 Oct - 21:18:29 10° NNW 21:22:31 31° NNE 21:26:21 10° E daylight
03 Oct - 22:58:52 10° WNW 23:03:01 41° SW 23:06:54 10° SSE daylight
04 Oct - 12:58:04 10° SE 12:59:04 11° SE 13:00:05 10° ESE daylight
04 Oct - 14:34:04 10° SW 14:38:52 77° SE 14:43:42 10° NE daylight
04 Oct - 16:15:48 10° W 16:19:44 24° NNW 16:23:39 10° NNE daylight
04 Oct - 17:59:49 10° NNW 18:01:35 12° N 18:03:19 10° NNE daylight
04 Oct - 19:41:05 10° NNW 19:43:42 15° NNE 19:46:14 10° NE daylight
04 Oct - 21:20:44 10° NW 21:25:06 44° NE 21:29:12 10° ESE daylight
04 Oct - 23:01:41 10° WNW 23:05:16 25° SW 23:08:40 10° S daylight
05 Oct - 12:58:00 10° S 13:01:15 18° SE 13:04:30 10° E daylight
05 Oct - 14:36:29 10° WSW 14:41:17 70° NW 14:46:07 10° NE daylight
05 Oct - 16:18:59 10° WNW 16:22:25 19° NNW 16:25:50 10° NNE daylight
05 Oct - 18:02:52 10° NNW 18:04:26 11° N 18:05:58 10° NNE daylight
05 Oct - 19:43:15 10° NNW 19:46:28 18° NNE 19:49:33 10° ENE daylight
05 Oct - 21:23:02 10° NW 21:27:35 70° NE 21:31:50 10° ESE daylight
05 Oct - 23:05:01 10° W 23:07:27 15° SW 23:09:48 10° SSW daylight
06 Oct - 12:59:21 10° S 13:03:27 29° SE 13:07:37 10° ENE daylight
06 Oct - 14:39:07 10° WSW 14:43:45 46° NW 14:48:25 10° NE daylight
06 Oct - 16:22:15 10° NW 16:25:10 16° NNW 16:28:02 10° NNE daylight
06 Oct - 18:05:33 10° NNW 18:07:17 12° N 18:08:59 10° NNE daylight
06 Oct - 19:45:25 10° NNW 19:49:09 23° NNE 19:52:44 10° ENE daylight
06 Oct - 21:25:26 10° NW 21:29:58 73° SW 21:34:14 10° SE daylight
07 Oct - 13:01:10 10° SSW 13:05:42 47° SE 13:10:21 10° ENE daylight
07 Oct - 14:41:56 10° W 14:46:17 33° NNW 14:50:39 10° NNE daylight
07 Oct - 16:25:35 10° NW 16:27:56 13° NNW 16:30:17 10° NNE daylight
07 Oct - 18:07:54 10° NNW 18:10:06 13° N 18:12:15 10° NE daylight
07 Oct - 19:47:36 10° NNW 19:51:46 31° NNE 19:55:45 10° E daylight
07 Oct - 21:27:58 10° WNW 21:32:17 43° SW 21:36:20 10° SSE daylight
08 Oct - 11:28:00 10° SE 11:28:17 10° ESE 11:28:33 10° ESE daylight
08 Oct - 13:03:17 10° SW 13:08:01 76° SE 13:12:52 10° NE daylight
08 Oct - 14:44:56 10° W 14:48:53 25° NNW 14:52:51 10° NNE daylight
08 Oct - 16:28:50 10° NNW 16:30:44 12° N 16:32:39 10° NNE daylight
08 Oct - 18:10:07 10° NNW 18:12:53 15° NNE 18:15:35 10° NE daylight
08 Oct - 19:49:49 10° NW 19:54:18 45° NE 19:58:33 10° ESE daylight
08 Oct - 21:30:44 10° WNW 21:34:30 26° SW 21:38:06 10° S daylight
09 Oct - 11:27:19 10° SSE 11:30:23 17° SE 11:33:32 10° E daylight
09 Oct - 13:05:39 10° WSW 13:10:23 71° NW 13:15:15 10° NE daylight
09 Oct - 14:48:03 10° WNW 14:51:32 19° NNW 14:55:01 10° NNE daylight
09 Oct - 16:31:51 10° NNW 16:33:33 12° N 16:35:16 10° NNE daylight
09 Oct - 18:12:17 10° NNW 18:15:36 18° NNE 18:18:50 10° ENE daylight
09 Oct - 19:52:05 10° NW 19:56:45 69° NE 20:01:09 10° ESE daylight
09 Oct - 21:33:56 10° W 21:36:40 16° SW 21:39:17 10° SSW daylight
10 Oct - 11:28:35 10° S 11:32:33 28° SE 11:36:39 10° ENE daylight
10 Oct - 13:08:14 10° WSW 13:12:50 47° NW 13:17:31 10° NE daylight
10 Oct - 14:51:18 10° NW 14:54:15 16° NNW 14:57:11 10° NNE daylight
10 Oct - 16:34:29 10° NNW 16:36:23 12° N 16:38:15 10° NNE daylight
10 Oct - 18:14:25 10° NNW 18:18:16 23° NNE 18:21:58 10° E daylight
10 Oct - 19:54:27 10° NW 19:59:07 75° SW 20:03:31 10° SE daylight
11 Oct - 11:30:20 10° SSW 11:34:46 45° SE 11:39:22 10° ENE daylight
11 Oct - 13:11:01 10° W 13:15:19 33° NNW 13:19:43 10° NE daylight
11 Oct - 14:54:34 10° NW 14:56:59 14° N 14:59:24 10° NNE daylight
11 Oct - 16:36:51 10° NNW 16:39:09 13° N 16:41:27 10° NE daylight
11 Oct - 18:16:35 10° NNW 18:20:50 31° NNE 18:24:56 10° E daylight
11 Oct - 19:56:56 10° WNW 20:01:24 45° SW 20:05:37 10° SSE daylight
12 Oct - 11:32:24 10° SW 11:37:03 74° SE 11:41:51 10° NE daylight
12 Oct - 13:13:58 10° W 13:17:54 25° NNW 13:21:52 10° NNE daylight
12 Oct - 14:57:46 10° NNW 14:59:46 12° N 15:01:45 10° NNE daylight
12 Oct - 16:39:03 10° NNW 16:41:54 15° NNE 16:44:43 10° NE daylight
12 Oct - 18:18:46 10° NW 18:23:21 45° NE 18:27:44 10° ESE daylight
12 Oct - 19:59:38 10° WNW 20:03:36 28° SW 20:07:22 10° S daylight
